Location: Barcelona
(41.3830°N, 2.1830°E)
Time: 13:06:46
(UTC+02:00)

ISS - Pass Details

Date: 27 May 2020
Orbit: 417 x 419 km, 51.6° (Epoch: 31 May)

Event Time Altitude Azimuth Distance (km) Brightness Sun altitude
Rises 00:44:34 0° 305° (NW) 2,367 0.8 -25.6°
Reaches altitude 10° 00:46:40 10° 306° (NW) 1,501 -0.3 -25.7°
Enters shadow 00:48:04 23° 306° (NW) 943 -1.5 -25.7°
